Weather History for Palacios, TX

Change the Weather History Date:

Monday, February 27, 2012

  Actual Average Record
Temperature  
Mean Temperature 65 °F -  
Max Temperature 69 °F 68 °F 84 °F (1956)
Min Temperature 61 °F 50 °F 21 °F (2002)
Growing Degree Days 15 (Base 50)    
Moisture  
Dew Point 63 °F    
Average Humidity 98    
Maximum Humidity 100    
Minimum Humidity 87    
Precipitation  
Precipitation 0.00 in - - ()
Sea Level Pressure  
Sea Level Pressure 30.15 in    
Wind  
Wind Speed 11 mph (ENE)    
Max Wind Speed 17 mph    
Max Gust Speed 23 mph    
Visibility 7 miles    
Events Fog    
Averages and records for this station are not official NWS values.
T = Trace of Precipitation, MM = Missing Value Source: NWS Daily Summary

Daily Weather History Graph

Daily Weather History Graph

Search for Another Location

Airport:

Trip Planner

Search our weather history database for the weather conditions in past years. The results will help you decide how hot, cold, wet, or windy it might be!

Date:

Astronomy

Feb. 27, 2012 Rise Set
Actual Time 6:52 AM CST 6:23 PM CST
Civil Twilight 6:28 AM CST 6:47 PM CST
Nautical Twilight 6:01 AM CST 7:14 PM CST
Astronomical Twilight 5:34 AM CST 7:41 PM CST
Moon 9:54 AM CST (2/27) 11:43 PM CST (2/27)
Length of Visible Light 12h 18m
Length of Day
11h 30m
Waxing Crescent, 29% of the Moon is Illuminated
Feb 27
Waxing Crescent
Feb 29
First Quarter
Mar 8
Full
Mar 14
Last Quarter
Mar 22
New

Hourly Weather History & Observations

Time (CST) Temp. Dew Point Humidity Pressure Visibility Wind Dir Wind Speed Gust Speed Precip Events Conditions
12:53 AM 61.0 °F 61.0 °F 100% 30.13 in 8.0 mi NE 8.1 mph - N/A   Overcast
1:42 AM 62.6 °F 62.6 °F 100% 30.13 in 9.0 mi NE 4.6 mph - N/A   Overcast
1:53 AM 62.1 °F 62.1 °F 100% 30.13 in 9.0 mi ENE 4.6 mph - N/A   Overcast
2:20 AM 62.6 °F 62.6 °F 100% 30.13 in 8.0 mi NE 5.8 mph - N/A   Overcast
2:53 AM 62.1 °F 62.1 °F 100% 30.12 in 8.0 mi ENE 5.8 mph - N/A   Overcast
3:53 AM 63.0 °F 63.0 °F 100% 30.11 in 9.0 mi ENE 8.1 mph - N/A   Overcast
4:53 AM 63.0 °F 63.0 °F 100% 30.12 in 10.0 mi ENE 10.4 mph - N/A   Overcast
5:09 AM 62.6 °F 62.6 °F 100% 30.13 in 10.0 mi ENE 10.4 mph - N/A   Overcast
5:15 AM 62.6 °F 62.6 °F 100% 30.12 in 10.0 mi East 10.4 mph - N/A   Overcast
5:43 AM 62.6 °F 62.6 °F 100% 30.13 in 8.0 mi ENE 11.5 mph - 0.00 in   Overcast
5:53 AM 63.0 °F 63.0 °F 100% 30.13 in 8.0 mi ENE 12.7 mph - 0.00 in   Overcast
6:53 AM 62.1 °F 62.1 °F 100% 30.15 in 9.0 mi ENE 10.4 mph - N/A   Overcast
7:08 AM 62.6 °F 62.6 °F 100% 30.16 in 7.0 mi ENE 11.5 mph - N/A   Overcast
7:17 AM 62.6 °F 62.6 °F 100% 30.16 in 7.0 mi ENE 13.8 mph - N/A   Overcast
7:53 AM 63.0 °F 63.0 °F 100% 30.18 in 9.0 mi ENE 12.7 mph - N/A   Overcast
8:40 AM 64.4 °F 62.6 °F 94% 30.19 in 10.0 mi ENE 13.8 mph - N/A   Overcast
8:53 AM 64.0 °F 63.0 °F 96% 30.19 in 10.0 mi ENE 16.1 mph - N/A   Overcast
9:53 AM 64.9 °F 63.0 °F 93% 30.20 in 10.0 mi ENE 16.1 mph - N/A   Overcast
10:53 AM 66.0 °F 64.0 °F 93% 30.20 in 10.0 mi ENE 17.3 mph - N/A   Overcast
11:53 AM 69.1 °F 64.9 °F 87% 30.19 in 10.0 mi East 15.0 mph 20.7 mph N/A   Overcast
12:53 PM 66.9 °F 64.0 °F 90% 30.17 in 10.0 mi ENE 16.1 mph - N/A   Overcast
1:21 PM 66.2 °F 64.4 °F 94% 30.17 in 10.0 mi ENE 16.1 mph - N/A   Overcast
2:21 PM 66.2 °F 62.6 °F 88% 30.15 in 2.0 mi East 16.1 mph - N/A   Overcast
2:30 PM 66.2 °F 64.4 °F 94% 30.15 in 8.0 mi ENE 12.7 mph - N/A   Overcast
2:53 PM 64.9 °F 64.0 °F 97% 30.15 in 8.0 mi ENE 11.5 mph - N/A   Overcast
3:53 PM 64.9 °F 63.0 °F 93% 30.14 in 6.0 mi East 15.0 mph - N/A   Overcast
4:53 PM 64.0 °F 63.0 °F 96% 30.15 in 7.0 mi East 12.7 mph - 0.00 in   Overcast
5:05 PM 62.6 °F 62.6 °F 100% 30.15 in 1.8 mi East 16.1 mph 23.0 mph N/A   Overcast
5:33 PM 62.6 °F 62.6 °F 100% 30.15 in 2.0 mi East 12.7 mph - N/A   Overcast
5:53 PM 63.0 °F 63.0 °F 100% 30.15 in 3.0 mi East 12.7 mph - N/A   Overcast
6:53 PM 62.1 °F 62.1 °F 100% 30.15 in 4.0 mi East 16.1 mph - 0.00 in   Overcast
7:53 PM 62.1 °F 62.1 °F 100% 30.15 in 6.0 mi East 17.3 mph 23.0 mph N/A   Overcast
8:45 PM 62.6 °F 62.6 °F 100% 30.16 in 5.0 mi East 15.0 mph - N/A   Overcast
8:53 PM 62.1 °F 62.1 °F 100% 30.17 in 5.0 mi East 16.1 mph - N/A   Overcast
9:53 PM 63.0 °F 63.0 °F 100% 30.18 in 5.0 mi East 11.5 mph - N/A   Overcast
10:53 PM 62.1 °F 62.1 °F 100% 30.17 in 3.0 mi East 11.5 mph - N/A   Overcast
11:12 PM 62.6 °F 62.6 °F 100% 30.18 in 2.0 mi East 11.5 mph - N/A   Overcast
11:20 PM 62.6 °F 62.6 °F 100% 30.17 in 1.5 mi East 10.4 mph - N/A   Overcast
11:35 PM 62.6 °F 62.6 °F 100% 30.17 in 0.5 mi East 11.5 mph - N/A Fog Fog
11:53 PM 62.1 °F 62.1 °F 100% 30.16 in 0.5 mi East 11.5 mph - N/A Fog Fog